    C/2009 E1 (Itagaki)
T 2009 Apr. 7.33718 TT                                  Nakano
q   0.6084872            (2000.0)            P               Q
                   Peri.   46.98842     +0.25273992     +0.60866517
                   Node   105.82262     +0.48884923     -0.75114955
e   1.0            Incl.  128.58209     +0.83495447     +0.25554074
From 33 observations 2009 Mar. 14-15.
NAKANO
         **** Don't distribute anyone except personal use only ****
                (C) Copyright 2009 OAA/ComputingSection
write mail from CFAD0::NAKANO on 2009-03-15 22:49:48(JST).

